Year,Month,Day,Hour,Minute,Value (Times are PST for temperature in C)
2014,04,13,00,00,6.20
2014,04,13,00,01,6.10
2014,04,13,00,02,6.10
2014,04,13,00,03,6.10
2014,04,13,00,04,6.10
2014,04,13,00,05,6.00
2014,04,13,00,06,6.00
2014,04,13,00,07,6.00
2014,04,13,00,08,6.00
2014,04,13,00,09,6.00
2014,04,13,00,10,6.00
2014,04,13,00,11,6.00
2014,04,13,00,12,5.90
2014,04,13,00,13,5.90
2014,04,13,00,14,5.90
2014,04,13,00,15,5.90
2014,04,13,00,16,5.80
2014,04,13,00,17,5.80
2014,04,13,00,18,5.80
2014,04,13,00,19,5.80
2014,04,13,00,20,5.80
2014,04,13,00,21,5.80
2014,04,13,00,22,5.70
2014,04,13,00,23,5.70
2014,04,13,00,24,5.70
2014,04,13,00,25,5.70
2014,04,13,00,26,5.70
2014,04,13,00,27,5.70
2014,04,13,00,28,5.70
2014,04,13,00,29,5.70
2014,04,13,00,30,5.70
2014,04,13,00,31,5.60
2014,04,13,00,32,5.60
2014,04,13,00,33,5.60
2014,04,13,00,34,5.60
2014,04,13,00,35,5.60
2014,04,13,00,36,5.60
2014,04,13,00,37,5.60
2014,04,13,00,38,5.50
2014,04,13,00,39,5.50
2014,04,13,00,40,5.50
2014,04,13,00,41,5.50
2014,04,13,00,42,5.50
2014,04,13,00,43,5.50
2014,04,13,00,44,5.50
2014,04,13,00,45,5.50
2014,04,13,00,46,5.50
2014,04,13,00,47,5.50
2014,04,13,00,48,5.40
2014,04,13,00,49,5.40
2014,04,13,00,50,5.40
2014,04,13,00,51,5.40
2014,04,13,00,52,5.40
2014,04,13,00,53,5.30
2014,04,13,00,54,5.30
2014,04,13,00,55,5.30
2014,04,13,00,56,5.30
2014,04,13,00,57,5.30
2014,04,13,00,58,5.30
2014,04,13,00,59,5.30
2014,04,13,01,00,5.20
2014,04,13,01,01,5.20
2014,04,13,01,02,5.20
2014,04,13,01,03,5.20
2014,04,13,01,04,5.20
2014,04,13,01,05,5.20
2014,04,13,01,06,5.20
2014,04,13,01,07,5.10
2014,04,13,01,08,5.10
2014,04,13,01,09,5.10
2014,04,13,01,10,5.10
2014,04,13,01,11,5.10
2014,04,13,01,12,5.10
2014,04,13,01,13,5.10
2014,04,13,01,14,5.10
2014,04,13,01,15,5.10
2014,04,13,01,16,5.10
2014,04,13,01,17,5.10
2014,04,13,01,18,5.10
2014,04,13,01,19,5.10
2014,04,13,01,20,5.10
2014,04,13,01,21,5.10
2014,04,13,01,22,5.10
2014,04,13,01,23,5.10
2014,04,13,01,24,5.10
2014,04,13,01,25,5.10
2014,04,13,01,26,5.10
2014,04,13,01,27,5.10
2014,04,13,01,28,5.20
2014,04,13,01,29,5.20
2014,04,13,01,30,5.20
2014,04,13,01,31,5.20
2014,04,13,01,32,5.30
2014,04,13,01,33,5.30
2014,04,13,01,34,5.30
2014,04,13,01,35,5.30
2014,04,13,01,36,5.30
2014,04,13,01,37,5.40
2014,04,13,01,38,5.40
2014,04,13,01,39,5.50
2014,04,13,01,40,5.60
2014,04,13,01,41,5.60
2014,04,13,01,42,5.70
2014,04,13,01,43,5.70
2014,04,13,01,44,5.70
2014,04,13,01,45,5.70
2014,04,13,01,46,5.80
2014,04,13,01,47,5.80
2014,04,13,01,48,5.90
2014,04,13,01,49,5.90
2014,04,13,01,50,5.90
2014,04,13,01,51,5.90
2014,04,13,01,52,5.90
2014,04,13,01,53,5.90
2014,04,13,01,54,5.90
2014,04,13,01,55,5.90
2014,04,13,01,56,5.90
2014,04,13,01,57,5.80
2014,04,13,01,58,5.80
2014,04,13,01,59,5.80
2014,04,13,02,00,5.80
2014,04,13,02,01,5.90
2014,04,13,02,02,5.90
2014,04,13,02,03,5.90
2014,04,13,02,04,6.00
2014,04,13,02,05,6.00
2014,04,13,02,06,6.10
2014,04,13,02,07,6.20
2014,04,13,02,08,6.20
2014,04,13,02,09,6.20
2014,04,13,02,10,6.30
2014,04,13,02,11,6.30
2014,04,13,02,12,6.40
2014,04,13,02,13,6.40
2014,04,13,02,14,6.40
2014,04,13,02,15,6.40
2014,04,13,02,16,6.40
2014,04,13,02,17,6.40
2014,04,13,02,18,6.40
2014,04,13,02,19,6.40
2014,04,13,02,20,6.50
2014,04,13,02,21,6.60
2014,04,13,02,22,6.60
2014,04,13,02,23,6.60
2014,04,13,02,24,6.60
2014,04,13,02,25,6.50
2014,04,13,02,26,6.40
2014,04,13,02,27,6.40
2014,04,13,02,28,6.40
2014,04,13,02,29,6.40
2014,04,13,02,30,6.40
2014,04,13,02,31,6.40
2014,04,13,02,32,6.40
2014,04,13,02,33,6.40
2014,04,13,02,34,6.40
2014,04,13,02,35,6.40
2014,04,13,02,36,6.30
2014,04,13,02,37,6.30
2014,04,13,02,38,6.30
2014,04,13,02,39,6.30
2014,04,13,02,40,6.30
2014,04,13,02,41,6.30
2014,04,13,02,42,6.30
2014,04,13,02,43,6.30
2014,04,13,02,44,6.30
2014,04,13,02,45,6.30
2014,04,13,02,46,6.30
2014,04,13,02,47,6.30
2014,04,13,02,48,6.30
2014,04,13,02,49,6.30
2014,04,13,02,50,6.30
2014,04,13,02,51,6.30
2014,04,13,02,52,6.30
2014,04,13,02,53,6.30
2014,04,13,02,54,6.30
2014,04,13,02,55,6.40
2014,04,13,02,56,6.40
2014,04,13,02,57,6.40
2014,04,13,02,58,6.40
2014,04,13,02,59,6.40
2014,04,13,03,00,6.40
2014,04,13,03,01,6.40
2014,04,13,03,02,6.40
2014,04,13,03,03,6.40
2014,04,13,03,04,6.40
2014,04,13,03,05,6.40
2014,04,13,03,06,6.40
2014,04,13,03,07,6.40
2014,04,13,03,08,6.50
2014,04,13,03,09,6.60
2014,04,13,03,10,6.60
2014,04,13,03,11,6.60
2014,04,13,03,12,6.60
2014,04,13,03,13,6.60
2014,04,13,03,14,6.60
2014,04,13,03,15,6.60
2014,04,13,03,16,6.60
2014,04,13,03,17,6.60
2014,04,13,03,18,6.60
2014,04,13,03,19,6.60
2014,04,13,03,20,6.60
2014,04,13,03,21,6.60
2014,04,13,03,22,6.50
2014,04,13,03,23,6.40
2014,04,13,03,24,6.40
2014,04,13,03,25,6.40
2014,04,13,03,26,6.40
2014,04,13,03,27,6.40
2014,04,13,03,28,6.40
2014,04,13,03,29,6.30
2014,04,13,03,30,6.30
2014,04,13,03,31,6.30
2014,04,13,03,32,6.30
2014,04,13,03,33,6.30
2014,04,13,03,34,6.30
2014,04,13,03,35,6.30
2014,04,13,03,36,6.30
2014,04,13,03,37,6.30
2014,04,13,03,38,6.30
2014,04,13,03,39,6.30
2014,04,13,03,40,6.40
2014,04,13,03,41,6.40
2014,04,13,03,42,6.40
2014,04,13,03,43,6.40
2014,04,13,03,44,6.40
2014,04,13,03,45,6.60
2014,04,13,03,46,6.60
2014,04,13,03,47,6.60
2014,04,13,03,48,6.70
2014,04,13,03,49,6.70
2014,04,13,03,50,6.70
2014,04,13,03,51,6.80
2014,04,13,03,52,6.80
2014,04,13,03,53,6.80
2014,04,13,03,54,6.80
2014,04,13,03,55,6.90
2014,04,13,03,56,6.90
2014,04,13,03,57,7.00
2014,04,13,03,58,7.00
2014,04,13,03,59,7.00
2014,04,13,04,00,7.10
2014,04,13,04,01,7.10
2014,04,13,04,02,7.10
2014,04,13,04,03,7.20
2014,04,13,04,04,7.20
2014,04,13,04,05,7.20
2014,04,13,04,06,7.30
2014,04,13,04,07,7.30
2014,04,13,04,08,7.30
2014,04,13,04,09,7.30
2014,04,13,04,10,7.30
2014,04,13,04,11,7.30
2014,04,13,04,12,7.30
2014,04,13,04,13,7.30
2014,04,13,04,14,7.30
2014,04,13,04,15,7.30
2014,04,13,04,16,7.30
2014,04,13,04,17,7.40
2014,04,13,04,18,7.40
2014,04,13,04,19,7.40
2014,04,13,04,20,7.40
2014,04,13,04,21,7.50
2014,04,13,04,22,7.50
2014,04,13,04,23,7.50
2014,04,13,04,24,7.50
2014,04,13,04,25,7.60
2014,04,13,04,26,7.60
2014,04,13,04,27,7.60
2014,04,13,04,28,7.60
2014,04,13,04,29,7.60
2014,04,13,04,30,7.60
2014,04,13,04,31,7.60
2014,04,13,04,32,7.60
2014,04,13,04,33,7.60
2014,04,13,04,34,7.60
2014,04,13,04,35,7.60
2014,04,13,04,36,7.60
2014,04,13,04,37,7.60
2014,04,13,04,38,7.60
2014,04,13,04,39,7.60
2014,04,13,04,40,7.60
2014,04,13,04,41,7.60
2014,04,13,04,42,7.70
2014,04,13,04,43,7.70
2014,04,13,04,44,7.80
2014,04,13,04,45,7.80
2014,04,13,04,46,7.80
2014,04,13,04,47,7.80
2014,04,13,04,48,7.80
2014,04,13,04,49,7.80
2014,04,13,04,50,7.80
2014,04,13,04,51,7.90
2014,04,13,04,52,7.90
2014,04,13,04,53,7.90
2014,04,13,04,54,8.00
2014,04,13,04,55,8.00
2014,04,13,04,56,8.00
2014,04,13,04,57,8.00
2014,04,13,04,58,8.00
2014,04,13,04,59,8.10
2014,04,13,05,00,8.10
2014,04,13,05,01,8.20
2014,04,13,05,02,8.20
2014,04,13,05,03,8.20
2014,04,13,05,04,8.20
2014,04,13,05,05,8.20
2014,04,13,05,06,8.20
2014,04,13,05,07,8.20
2014,04,13,05,08,8.20
2014,04,13,05,09,8.20
2014,04,13,05,10,8.20
2014,04,13,05,11,8.20
2014,04,13,05,12,8.20
2014,04,13,05,13,8.20
2014,04,13,05,14,8.20
2014,04,13,05,15,8.20
2014,04,13,05,16,8.30
2014,04,13,05,17,8.30
2014,04,13,05,18,8.30
2014,04,13,05,19,8.30
2014,04,13,05,20,8.30
2014,04,13,05,21,8.30
2014,04,13,05,22,8.30
2014,04,13,05,23,8.30
2014,04,13,05,24,8.30
2014,04,13,05,25,8.30
2014,04,13,05,26,8.30
2014,04,13,05,27,8.30
2014,04,13,05,28,8.30
2014,04,13,05,29,8.30
2014,04,13,05,30,8.30
2014,04,13,05,31,8.30
2014,04,13,05,32,8.20
2014,04,13,05,33,8.20
2014,04,13,05,34,8.30
2014,04,13,05,35,8.30
2014,04,13,05,36,8.30
2014,04,13,05,37,8.30
2014,04,13,05,38,8.30
2014,04,13,05,39,8.30
2014,04,13,05,40,8.30
2014,04,13,05,41,8.30
2014,04,13,05,42,8.30
2014,04,13,05,43,8.30
2014,04,13,05,44,8.30
2014,04,13,05,45,8.30
2014,04,13,05,46,8.30
2014,04,13,05,47,8.30
2014,04,13,05,48,8.30
2014,04,13,05,49,8.30
2014,04,13,05,50,8.30
2014,04,13,05,51,8.30
2014,04,13,05,52,8.30
2014,04,13,05,53,8.30
2014,04,13,05,54,8.30
2014,04,13,05,55,8.30
2014,04,13,05,56,8.20
2014,04,13,05,57,8.20
2014,04,13,05,58,8.20
2014,04,13,05,59,8.30
2014,04,13,06,00,8.30
2014,04,13,06,01,8.30
2014,04,13,06,02,8.20
2014,04,13,06,03,8.20
2014,04,13,06,04,8.20
2014,04,13,06,05,8.20
2014,04,13,06,06,8.20
2014,04,13,06,07,8.30
2014,04,13,06,08,8.30
2014,04,13,06,09,8.30
2014,04,13,06,10,8.30
2014,04,13,06,11,8.30
2014,04,13,06,12,8.30
2014,04,13,06,13,8.30
2014,04,13,06,14,8.30
2014,04,13,06,15,8.30
2014,04,13,06,16,8.30
2014,04,13,06,17,8.30
2014,04,13,06,18,8.30
2014,04,13,06,19,8.30
2014,04,13,06,20,8.30
2014,04,13,06,21,8.30
2014,04,13,06,22,8.20
2014,04,13,06,23,8.20
2014,04,13,06,24,8.20
2014,04,13,06,25,8.20
2014,04,13,06,26,8.20
2014,04,13,06,27,8.20
2014,04,13,06,28,8.20
2014,04,13,06,29,8.20
2014,04,13,06,30,8.20
2014,04,13,06,31,8.20
2014,04,13,06,32,8.20
2014,04,13,06,33,8.20
2014,04,13,06,34,8.20
2014,04,13,06,35,8.20
2014,04,13,06,36,8.20
2014,04,13,06,37,8.20
2014,04,13,06,38,8.20
2014,04,13,06,39,8.20
2014,04,13,06,40,8.20
2014,04,13,06,41,8.20
2014,04,13,06,42,8.20
2014,04,13,06,43,8.20
2014,04,13,06,44,8.20
2014,04,13,06,45,8.20
2014,04,13,06,46,8.20
2014,04,13,06,47,8.20
2014,04,13,06,48,8.20
2014,04,13,06,49,8.20
2014,04,13,06,50,8.10
2014,04,13,06,51,8.10
2014,04,13,06,52,8.10
2014,04,13,06,53,8.10
2014,04,13,06,54,8.10
2014,04,13,06,55,8.10
2014,04,13,06,56,8.10
2014,04,13,06,57,8.10
2014,04,13,06,58,8.00
2014,04,13,06,59,8.00
2014,04,13,07,00,8.00
2014,04,13,07,01,8.00
2014,04,13,07,02,8.00
2014,04,13,07,03,8.00
2014,04,13,07,04,7.90
2014,04,13,07,05,7.90
2014,04,13,07,06,7.90
2014,04,13,07,07,7.90
2014,04,13,07,08,7.90
2014,04,13,07,09,7.90
2014,04,13,07,10,7.90
2014,04,13,07,11,7.90
2014,04,13,07,12,8.00
2014,04,13,07,13,8.00
2014,04,13,07,14,8.00
2014,04,13,07,15,8.10
2014,04,13,07,16,8.10
2014,04,13,07,17,8.20
2014,04,13,07,18,8.20
2014,04,13,07,19,8.20
2014,04,13,07,20,8.20
2014,04,13,07,21,8.20
2014,04,13,07,22,8.20
2014,04,13,07,23,8.30
2014,04,13,07,24,8.30
2014,04,13,07,25,8.30
2014,04,13,07,26,8.40
2014,04,13,07,27,8.40
2014,04,13,07,28,8.50
2014,04,13,07,29,8.50
2014,04,13,07,30,8.50
2014,04,13,07,31,8.60
2014,04,13,07,32,8.60
2014,04,13,07,33,8.60
2014,04,13,07,34,8.60
2014,04,13,07,35,8.60
2014,04,13,07,36,8.70
2014,04,13,07,37,8.70
2014,04,13,07,38,8.70
2014,04,13,07,39,8.70
2014,04,13,07,40,8.70
2014,04,13,07,41,8.70
2014,04,13,07,42,8.70
2014,04,13,07,43,8.70
2014,04,13,07,44,8.70
2014,04,13,07,45,8.80
2014,04,13,07,46,8.80
2014,04,13,07,47,8.90
2014,04,13,07,48,8.90
2014,04,13,07,49,8.90
2014,04,13,07,50,9.00
2014,04,13,07,51,9.00
2014,04,13,07,52,9.20
2014,04,13,07,53,9.20
2014,04,13,07,54,9.30
2014,04,13,07,55,9.40
2014,04,13,07,56,9.40
2014,04,13,07,57,9.50
2014,04,13,07,58,9.60
2014,04,13,07,59,9.70
2014,04,13,08,00,9.70
2014,04,13,08,01,9.80
2014,04,13,08,02,9.80
2014,04,13,08,03,9.90
2014,04,13,08,04,9.90
2014,04,13,08,05,10.00
2014,04,13,08,06,10.10
2014,04,13,08,07,10.10
2014,04,13,08,08,10.10
2014,04,13,08,09,10.10
2014,04,13,08,10,10.20
2014,04,13,08,11,10.20
2014,04,13,08,12,10.20
2014,04,13,08,13,10.20
2014,04,13,08,14,10.30
2014,04,13,08,15,10.30
2014,04,13,08,16,10.30
2014,04,13,08,17,10.40
2014,04,13,08,18,10.40
2014,04,13,08,19,10.40
2014,04,13,08,20,10.40
2014,04,13,08,21,10.40
2014,04,13,08,22,10.60
2014,04,13,08,23,10.60
2014,04,13,08,24,10.60
2014,04,13,08,25,10.60
2014,04,13,08,26,10.60
2014,04,13,08,27,10.70
2014,04,13,08,28,10.70
2014,04,13,08,29,10.70
2014,04,13,08,30,10.80
2014,04,13,08,31,10.80
2014,04,13,08,32,10.80
2014,04,13,08,33,10.80
2014,04,13,08,34,10.90
2014,04,13,08,35,10.90
2014,04,13,08,36,10.90
2014,04,13,08,37,10.90
2014,04,13,08,38,10.90
2014,04,13,08,39,10.90
2014,04,13,08,40,10.90
2014,04,13,08,41,10.90
2014,04,13,08,42,10.90
2014,04,13,08,43,10.90
2014,04,13,08,44,11.00
2014,04,13,08,45,11.10
2014,04,13,08,46,11.10
2014,04,13,08,47,11.10
2014,04,13,08,48,11.20
2014,04,13,08,49,11.20
2014,04,13,08,50,11.30
2014,04,13,08,51,11.30
2014,04,13,08,52,11.30
2014,04,13,08,53,11.30
2014,04,13,08,54,11.30
2014,04,13,08,55,11.40
2014,04,13,08,56,11.40
2014,04,13,08,57,11.40
2014,04,13,08,58,11.40
2014,04,13,08,59,11.40
2014,04,13,09,00,11.40
2014,04,13,09,01,11.40
2014,04,13,09,02,11.40
2014,04,13,09,03,11.40
2014,04,13,09,04,11.50
2014,04,13,09,05,11.60
2014,04,13,09,06,11.60
2014,04,13,09,07,11.60
2014,04,13,09,08,11.60
2014,04,13,09,09,11.60
2014,04,13,09,10,11.60
2014,04,13,09,11,11.60
2014,04,13,09,12,11.60
2014,04,13,09,13,11.60
2014,04,13,09,14,11.60
2014,04,13,09,15,11.60
2014,04,13,09,16,11.50
2014,04,13,09,17,11.40
2014,04,13,09,18,11.50
2014,04,13,09,19,11.50
2014,04,13,09,20,11.50
2014,04,13,09,21,11.60
2014,04,13,09,22,11.60
2014,04,13,09,23,11.60
2014,04,13,09,24,11.60
2014,04,13,09,25,11.60
2014,04,13,09,26,11.60
2014,04,13,09,27,11.60
2014,04,13,09,28,11.60
2014,04,13,09,29,11.60
2014,04,13,09,30,11.60
2014,04,13,09,31,11.60
2014,04,13,09,32,11.60
2014,04,13,09,33,11.60
2014,04,13,09,34,11.60
2014,04,13,09,35,11.60
2014,04,13,09,36,11.70
2014,04,13,09,37,11.70
2014,04,13,09,38,11.70
2014,04,13,09,39,11.70
2014,04,13,09,40,11.70
2014,04,13,09,41,11.70
2014,04,13,09,42,11.80
2014,04,13,09,43,11.80
2014,04,13,09,44,11.80
2014,04,13,09,45,11.80
2014,04,13,09,46,11.80
2014,04,13,09,47,11.90
2014,04,13,09,48,11.90
2014,04,13,09,49,11.90
2014,04,13,09,50,11.90
2014,04,13,09,51,11.90
2014,04,13,09,52,11.90
2014,04,13,09,53,12.00
2014,04,13,09,54,11.90
2014,04,13,09,55,12.00
2014,04,13,09,56,12.00
2014,04,13,09,57,12.00
2014,04,13,09,58,12.00
2014,04,13,09,59,12.00
2014,04,13,10,00,12.00
2014,04,13,10,01,12.00
2014,04,13,10,02,12.00
2014,04,13,10,03,12.00
2014,04,13,10,04,12.00
2014,04,13,10,05,11.90
2014,04,13,10,06,11.90
2014,04,13,10,07,12.00
2014,04,13,10,08,12.00
2014,04,13,10,09,12.00
2014,04,13,10,10,12.00
2014,04,13,10,11,12.10
2014,04,13,10,12,12.10
2014,04,13,10,13,12.10
2014,04,13,10,14,12.20
2014,04,13,10,15,12.30
2014,04,13,10,16,12.30
2014,04,13,10,17,12.30
2014,04,13,10,18,12.40
2014,04,13,10,19,12.40
2014,04,13,10,20,12.40
2014,04,13,10,21,12.50
2014,04,13,10,22,12.50
2014,04,13,10,23,12.50
2014,04,13,10,24,12.60
2014,04,13,10,25,12.60
2014,04,13,10,26,12.60
2014,04,13,10,27,12.70
2014,04,13,10,28,12.70
2014,04,13,10,29,12.70
2014,04,13,10,30,12.70
2014,04,13,10,31,12.70
2014,04,13,10,32,12.70
2014,04,13,10,33,12.70
2014,04,13,10,34,12.70
2014,04,13,10,35,12.70
2014,04,13,10,36,12.70
2014,04,13,10,37,12.70
2014,04,13,10,38,12.80
2014,04,13,10,39,12.80
2014,04,13,10,40,12.80
2014,04,13,10,41,12.80
2014,04,13,10,42,12.80
2014,04,13,10,43,12.80
2014,04,13,10,44,12.80
2014,04,13,10,45,12.80
2014,04,13,10,46,12.90
2014,04,13,10,47,12.90
2014,04,13,10,48,12.90
2014,04,13,10,49,12.80
2014,04,13,10,50,12.80
2014,04,13,10,51,12.80
2014,04,13,10,52,12.90
2014,04,13,10,53,12.90
2014,04,13,10,54,12.90
2014,04,13,10,55,13.00
2014,04,13,10,56,13.00
2014,04,13,10,57,13.00
2014,04,13,10,58,13.00
2014,04,13,10,59,12.90
2014,04,13,11,00,13.00
2014,04,13,11,01,12.90
2014,04,13,11,02,13.00
2014,04,13,11,03,13.00
2014,04,13,11,04,13.00
2014,04,13,11,05,13.00
2014,04,13,11,06,13.10
2014,04,13,11,07,13.10
2014,04,13,11,08,13.20
2014,04,13,11,09,13.20
2014,04,13,11,10,13.30
2014,04,13,11,11,13.30
2014,04,13,11,12,13.30
2014,04,13,11,13,13.30
2014,04,13,11,14,13.20
2014,04,13,11,15,13.20
2014,04,13,11,16,13.20
2014,04,13,11,17,13.20
2014,04,13,11,18,13.30
2014,04,13,11,19,13.20
2014,04,13,11,20,13.20
2014,04,13,11,21,13.10
2014,04,13,11,22,13.10
2014,04,13,11,23,13.00
2014,04,13,11,24,13.00
2014,04,13,11,25,13.00
2014,04,13,11,26,13.00
2014,04,13,11,27,13.10
2014,04,13,11,28,13.10
2014,04,13,11,29,13.20
2014,04,13,11,30,13.30
2014,04,13,11,31,13.30
2014,04,13,11,32,13.20
2014,04,13,11,33,13.10
2014,04,13,11,34,13.10
2014,04,13,11,35,13.10
2014,04,13,11,36,13.10
2014,04,13,11,37,13.10
2014,04,13,11,38,13.20
2014,04,13,11,39,13.20
2014,04,13,11,40,13.20
2014,04,13,11,41,13.10
2014,04,13,11,42,13.10
2014,04,13,11,43,13.10
2014,04,13,11,44,13.10
2014,04,13,11,45,13.10
2014,04,13,11,46,13.20
2014,04,13,11,47,13.20
2014,04,13,11,48,13.30
2014,04,13,11,49,13.30
2014,04,13,11,50,13.30
2014,04,13,11,51,13.30
2014,04,13,11,52,13.30
2014,04,13,11,53,13.40
2014,04,13,11,54,13.40
2014,04,13,11,55,13.50
2014,04,13,11,56,13.60
2014,04,13,11,57,13.60
2014,04,13,11,58,13.70
2014,04,13,11,59,13.70
2014,04,13,12,00,13.70
2014,04,13,12,01,13.70
2014,04,13,12,02,13.80
2014,04,13,12,03,13.80
2014,04,13,12,04,13.90
2014,04,13,12,05,13.90
2014,04,13,12,06,14.00
2014,04,13,12,07,14.10
2014,04,13,12,08,14.10
2014,04,13,12,09,14.10
2014,04,13,12,10,14.10
2014,04,13,12,11,14.10
2014,04,13,12,12,14.00
2014,04,13,12,13,14.00
2014,04,13,12,14,13.90
2014,04,13,12,15,13.90
2014,04,13,12,16,13.90
2014,04,13,12,17,13.80
2014,04,13,12,18,13.70
2014,04,13,12,19,13.70
2014,04,13,12,20,13.70
2014,04,13,12,21,13.70
2014,04,13,12,22,13.70
2014,04,13,12,23,13.70
2014,04,13,12,24,13.70
2014,04,13,12,25,13.70
2014,04,13,12,26,13.70
2014,04,13,12,27,13.70
2014,04,13,12,28,13.70
2014,04,13,12,29,13.70
2014,04,13,12,30,13.60
2014,04,13,12,31,13.60
2014,04,13,12,32,13.70
2014,04,13,12,33,13.70
2014,04,13,12,34,13.70
2014,04,13,12,35,13.60
2014,04,13,12,36,13.70
2014,04,13,12,37,13.70
2014,04,13,12,38,13.70
2014,04,13,12,39,13.80
2014,04,13,12,40,13.70
2014,04,13,12,41,13.70
2014,04,13,12,42,13.80
2014,04,13,12,43,13.80
2014,04,13,12,44,13.80
2014,04,13,12,45,13.80
2014,04,13,12,46,13.80
2014,04,13,12,47,13.80
2014,04,13,12,48,13.80
2014,04,13,12,49,13.90
2014,04,13,12,50,13.90
2014,04,13,12,51,13.90
2014,04,13,12,52,13.90
2014,04,13,12,53,13.90
2014,04,13,12,54,14.00
2014,04,13,12,55,14.00
2014,04,13,12,56,14.10
2014,04,13,12,57,14.10
2014,04,13,12,58,14.20
2014,04,13,12,59,14.20
2014,04,13,13,00,14.20
2014,04,13,13,01,14.20
2014,04,13,13,02,14.20
2014,04,13,13,03,14.20
2014,04,13,13,04,14.20
2014,04,13,13,05,14.20
2014,04,13,13,06,14.20
2014,04,13,13,07,14.20
2014,04,13,13,08,14.20
2014,04,13,13,09,14.20
2014,04,13,13,10,14.20
2014,04,13,13,11,14.20
2014,04,13,13,12,14.20
2014,04,13,13,13,14.20
2014,04,13,13,14,14.40
2014,04,13,13,15,14.50
2014,04,13,13,16,14.60
2014,04,13,13,17,14.70
2014,04,13,13,18,14.80
2014,04,13,13,19,14.90
2014,04,13,13,20,15.00
2014,04,13,13,21,15.00
2014,04,13,13,22,15.10
2014,04,13,13,23,15.10
2014,04,13,13,24,15.10
2014,04,13,13,25,15.10
2014,04,13,13,26,15.10
2014,04,13,13,27,15.10
2014,04,13,13,28,15.10
2014,04,13,13,29,15.10
2014,04,13,13,30,15.10
2014,04,13,13,31,15.10
2014,04,13,13,32,15.10
2014,04,13,13,33,15.10
2014,04,13,13,34,15.10
2014,04,13,13,35,15.00
2014,04,13,13,36,15.10
2014,04,13,13,37,15.10
2014,04,13,13,38,15.10
2014,04,13,13,39,15.10
2014,04,13,13,40,15.10
2014,04,13,13,41,15.10
2014,04,13,13,42,15.20
2014,04,13,13,43,15.20
2014,04,13,13,44,15.20
2014,04,13,13,45,15.20
2014,04,13,13,46,15.20
2014,04,13,13,47,15.30
2014,04,13,13,48,15.30
2014,04,13,13,49,15.30
2014,04,13,13,50,15.30
2014,04,13,13,51,15.30
2014,04,13,13,52,15.30
2014,04,13,13,53,15.30
2014,04,13,13,54,15.30
2014,04,13,13,55,15.20
2014,04,13,13,56,15.20
2014,04,13,13,57,15.10
2014,04,13,13,58,15.10
2014,04,13,13,59,15.20
2014,04,13,14,00,15.20
2014,04,13,14,01,15.20
2014,04,13,14,02,15.30
2014,04,13,14,03,15.30
2014,04,13,14,04,15.30
2014,04,13,14,05,15.40
2014,04,13,14,06,15.40
2014,04,13,14,07,15.40
2014,04,13,14,08,15.30
2014,04,13,14,09,15.30
2014,04,13,14,10,15.30
2014,04,13,14,11,15.30
2014,04,13,14,12,15.30
2014,04,13,14,13,15.30
2014,04,13,14,14,15.30
2014,04,13,14,15,15.30
2014,04,13,14,16,15.30
2014,04,13,14,17,15.30
2014,04,13,14,18,15.30
2014,04,13,14,19,15.30
2014,04,13,14,20,15.30
2014,04,13,14,21,15.30
2014,04,13,14,22,15.30
2014,04,13,14,23,15.20
2014,04,13,14,24,15.20
2014,04,13,14,25,15.20
2014,04,13,14,26,15.20
2014,04,13,14,27,15.30
2014,04,13,14,28,15.30
2014,04,13,14,29,15.30
2014,04,13,14,30,15.40
2014,04,13,14,31,15.50
2014,04,13,14,32,15.60
2014,04,13,14,33,15.70
2014,04,13,14,34,15.80
2014,04,13,14,35,15.90
2014,04,13,14,36,15.90
2014,04,13,14,37,15.90
2014,04,13,14,38,15.90
2014,04,13,14,39,15.90
2014,04,13,14,40,15.90
2014,04,13,14,41,15.90
2014,04,13,14,42,15.90
2014,04,13,14,43,15.90
2014,04,13,14,44,15.90
2014,04,13,14,45,16.00
2014,04,13,14,46,16.10
2014,04,13,14,47,16.10
2014,04,13,14,48,16.10
2014,04,13,14,49,16.00
2014,04,13,14,50,15.90
2014,04,13,14,51,15.80
2014,04,13,14,52,15.80
2014,04,13,14,53,15.80
2014,04,13,14,54,15.80
2014,04,13,14,55,15.90
2014,04,13,14,56,16.00
2014,04,13,14,57,16.10
2014,04,13,14,58,16.10
2014,04,13,14,59,16.20
2014,04,13,15,00,16.30
2014,04,13,15,01,16.40
2014,04,13,15,02,16.40
2014,04,13,15,03,16.50
2014,04,13,15,04,16.60
2014,04,13,15,05,16.70
2014,04,13,15,06,16.70
2014,04,13,15,07,16.70
2014,04,13,15,08,16.70
2014,04,13,15,09,16.70
2014,04,13,15,10,16.60
2014,04,13,15,11,16.60
2014,04,13,15,12,16.60
2014,04,13,15,13,16.60
2014,04,13,15,14,16.60
2014,04,13,15,15,16.70
2014,04,13,15,16,16.70
2014,04,13,15,17,16.70
2014,04,13,15,18,16.70
2014,04,13,15,19,16.70
2014,04,13,15,20,16.70
2014,04,13,15,21,16.70
2014,04,13,15,22,16.70
2014,04,13,15,23,16.70
2014,04,13,15,24,16.50
2014,04,13,15,25,16.40
2014,04,13,15,26,16.40
2014,04,13,15,27,16.30
2014,04,13,15,28,16.20
2014,04,13,15,29,16.10
2014,04,13,15,30,16.10
2014,04,13,15,31,16.10
2014,04,13,15,32,16.10
2014,04,13,15,33,16.10
2014,04,13,15,34,16.10
2014,04,13,15,35,16.10
2014,04,13,15,36,16.10
2014,04,13,15,37,16.10
2014,04,13,15,38,16.20
2014,04,13,15,39,16.20
2014,04,13,15,40,16.30
2014,04,13,15,41,16.40
2014,04,13,15,42,16.40
2014,04,13,15,43,16.40
2014,04,13,15,44,16.40
2014,04,13,15,45,16.40
2014,04,13,15,46,16.40
2014,04,13,15,47,16.40
2014,04,13,15,48,16.40
2014,04,13,15,49,16.40
2014,04,13,15,50,16.40
2014,04,13,15,51,16.30
2014,04,13,15,52,16.10
2014,04,13,15,53,16.10
2014,04,13,15,54,16.00
2014,04,13,15,55,15.90
2014,04,13,15,56,15.80
2014,04,13,15,57,15.80
2014,04,13,15,58,15.70
2014,04,13,15,59,15.60
2014,04,13,16,00,15.60
2014,04,13,16,01,15.50
2014,04,13,16,02,15.40
2014,04,13,16,03,15.40
2014,04,13,16,04,15.30
2014,04,13,16,05,15.30
2014,04,13,16,06,15.30
2014,04,13,16,07,15.30
2014,04,13,16,08,15.40
2014,04,13,16,09,15.40
2014,04,13,16,10,15.40
2014,04,13,16,11,15.40
2014,04,13,16,12,15.40
2014,04,13,16,13,15.40
2014,04,13,16,14,15.40
2014,04,13,16,15,15.40
2014,04,13,16,16,15.30
2014,04,13,16,17,15.30
2014,04,13,16,18,15.30
2014,04,13,16,19,15.30
2014,04,13,16,20,15.30
2014,04,13,16,21,15.30
2014,04,13,16,22,15.30
2014,04,13,16,23,15.30
2014,04,13,16,24,15.30
2014,04,13,16,25,15.30
2014,04,13,16,26,15.40
2014,04,13,16,27,15.40
2014,04,13,16,28,15.40
2014,04,13,16,29,15.50
2014,04,13,16,30,15.50
2014,04,13,16,31,15.60
2014,04,13,16,32,15.60
2014,04,13,16,33,15.60
2014,04,13,16,34,15.60
2014,04,13,16,35,15.60
2014,04,13,16,36,15.50
2014,04,13,16,37,15.50
2014,04,13,16,38,15.50
2014,04,13,16,39,15.50
2014,04,13,16,40,15.40
2014,04,13,16,41,15.40
2014,04,13,16,42,15.30
2014,04,13,16,43,15.30
2014,04,13,16,44,15.30
2014,04,13,16,45,15.30
2014,04,13,16,46,15.30
2014,04,13,16,47,15.30
2014,04,13,16,48,15.30
2014,04,13,16,49,15.30
2014,04,13,16,50,15.30
2014,04,13,16,51,15.20
2014,04,13,16,52,15.20
2014,04,13,16,53,15.20
2014,04,13,16,54,15.20
2014,04,13,16,55,15.20
2014,04,13,16,56,15.30
2014,04,13,16,57,15.30
2014,04,13,16,58,15.30
2014,04,13,16,59,15.40
2014,04,13,17,00,15.40
2014,04,13,17,01,15.50
2014,04,13,17,02,15.50
2014,04,13,17,03,15.60
2014,04,13,17,04,15.60
2014,04,13,17,05,15.70
2014,04,13,17,06,15.70
2014,04,13,17,07,15.80
2014,04,13,17,08,15.80
2014,04,13,17,09,15.80
2014,04,13,17,10,15.80
2014,04,13,17,11,15.70
2014,04,13,17,12,15.60
2014,04,13,17,13,15.60
2014,04,13,17,14,15.60
2014,04,13,17,15,15.60
2014,04,13,17,16,15.50
2014,04,13,17,17,15.50
2014,04,13,17,18,15.50
2014,04,13,17,19,15.40
2014,04,13,17,20,15.30
2014,04,13,17,21,15.30
2014,04,13,17,22,15.30
2014,04,13,17,23,15.40
2014,04,13,17,24,15.40
2014,04,13,17,25,15.30
2014,04,13,17,26,15.30
2014,04,13,17,27,15.30
2014,04,13,17,28,15.30
2014,04,13,17,29,15.30
2014,04,13,17,30,15.30
2014,04,13,17,31,15.30
2014,04,13,17,32,15.30
2014,04,13,17,33,15.40
2014,04,13,17,34,15.40
2014,04,13,17,35,15.40
2014,04,13,17,36,15.50
2014,04,13,17,37,15.50
2014,04,13,17,38,15.50
2014,04,13,17,39,15.50
2014,04,13,17,40,15.50